Location: Boiro
(42.6475°N, 8.8834°W)
Time: 19:43:11
(UTC+02:00)

AO-73 - Pass Details

Date: 27 April 2024
Orbit: 559 x 625 km, 97.7° (Epoch: 27 May)

Event Time Altitude Azimuth Distance (km) Brightness Sun altitude
Rises 04:58:33 0° 24° (NNE) 2,921 ? -24.3°
Reaches altitude 10° 05:01:03 10° 38° (NE) 2,011 ? -24.0°
Maximum altitude 05:04:44 26° 95° (E) 1,241 ? -23.6°
Enters shadow 05:07:01 17° 138° (SE) 1,576 ? -23.3°
